GW2253 Weather Reports


Display with metric or nautical units.
time (UTC)temp
F
wind
direction
speed
MPH
gust
MPH
rain 1hr
in
rain 24hr
in
rain mn
in
humidity
%
barometer
mb
20260509173101 0 0.0 0.0 0.00 0.00 0.00 1010.7
20260509171559 0 0.0 0.0 0.00 0.00 0.00 1010.6
20260509170100 0 0.0 0.0 0.00 0.00 0.00 1010.6
20260509164603 0 0.0 0.0 0.00 0.00 0.00 1010.8
20260509163112 0 0.0 0.0 0.00 0.00 0.00 1011.0
20260509161602 0 0.0 0.0 0.00 0.00 0.00 1010.9
20260509154611 0 0.0 0.0 0.00 0.00 0.00 1011.2
20260509153119 0 0.0 0.0 0.00 0.00 0.00 1011.2
20260509151601 0 0.0 0.0 0.00 0.00 0.00 1011.3
20260509150103 0 0.0 0.0 0.00 0.00 0.00 1011.5
20260509144600 0 0.0 0.0 0.00 0.00 0.00 1011.6
20260509143100 0 0.0 0.0 0.00 0.00 0.00 1011.8
20260509141558 0 0.0 0.0 0.00 0.00 0.00 1012.0
20260509140103 0 0.0 0.0 0.00 0.00 0.00 1012.3
20260509134600 0 0.0 0.0 0.00 0.00 0.00 1012.4
20260509133059 0 0.0 0.0 0.00 0.00 0.00 1012.8
20260509131601 0 0.0 0.0 0.00 0.00 0.00 1012.9
20260509130108 0 0.0 0.0 0.00 0.00 0.00 1013.0
20260509124558 0 0.0 0.0 0.00 0.00 0.00 1013.1
20260509123058 0 0.0 0.0 0.00 0.00 0.00 1013.1
20260509121623 0 0.0 0.0 0.00 0.00 0.00 1013.1
20260509120058 0 0.0 0.0 0.00 0.00 0.00 1013.1
20260509114604 0 0.0 0.0 0.00 0.00 0.00 1013.1
20260509113101 0 0.0 0.0 0.00 0.00 0.00 1013.1
20260509111558 0 0.0 0.0 0.00 0.00 0.00 1013.0
20260509110108 0 0.0 0.0 0.00 0.00 0.00 1012.8
20260509104558 0 0.0 0.0 0.00 0.00 0.00 1012.6
20260509103103 0 0.0 0.0 0.00 0.00 0.00 1012.5
20260509101615 0 0.0 0.0 0.00 0.00 0.00 1012.3
20260509100057 0 0.0 0.0 0.00 0.00 0.00 1012.2
20260509094606 0 0.0 0.0 0.00 0.00 0.00 1012.0
20260509093059 0 0.0 0.0 0.00 0.00 0.00 1012.0
20260509091607 0 0.0 0.0 0.00 0.00 0.00 1011.8
20260509090107 0 0.0 0.0 0.00 0.00 0.00 1011.8
20260509084602 0 0.0 0.0 0.00 0.00 0.00 1011.8
20260509083108 0 0.0 0.0 0.00 0.00 0.00 1011.7
20260509081559 82 74 4.0 13.0 0.00 0.00 0.00 82 1011.6
20260509080100 82 76 4.0 11.0 0.00 0.00 0.00 82 1011.4
20260509074600 82 63 6.0 12.0 0.00 0.00 0.00 82 1011.3
20260509073100 82 76 4.0 12.0 0.00 0.00 0.00 82 1011.0
20260509071559 82 61 5.0 11.0 0.00 0.00 0.00 82 1010.9
20260509070057 83 69 7.0 11.0 0.00 0.00 0.00 81 1010.9
20260509064557 83 73 6.0 13.0 0.00 0.00 0.00 80 1010.9
20260509063101 83 76 7.0 12.0 0.00 0.00 0.00 79 1010.9
20260509061603 83 74 5.0 12.0 0.00 0.00 0.00 79 1010.9
20260509060111 83 90 8.0 13.0 0.00 0.00 0.00 78 1010.9
20260509054608 84 80 6.0 13.0 0.00 0.00 0.00 78 1010.7
20260509053132 83 76 6.0 16.0 0.00 0.00 0.00 79 1010.9
20260509051609 83 90 8.0 12.0 0.00 0.00 0.00 78 1010.9
20260509044704 84 63 6.0 15.0 0.00 0.00 0.00 77 1011.0
20260509043140 85 84 7.0 15.0 0.00 0.00 0.00 78 1010.9
20260509041557 84 78 8.0 15.0 0.00 0.00 0.00 77 1011.1
20260509034600 86 91 8.0 14.0 0.00 0.00 0.00 77 1011.3
20260509033109 85 92 7.0 17.0 0.00 0.00 0.00 77 1011.4
20260509031608 84 65 5.0 15.0 0.00 0.00 0.00 79 1011.6
20260509030114 84 90 5.0 13.0 0.00 0.00 0.00 79 1011.7
20260509024604 84 76 8.0 14.0 0.00 0.00 0.00 77 1011.8
20260509023102 84 101 7.0 13.0 0.00 0.00 0.00 81 1011.9
20260509021606 84 55 6.0 11.0 0.00 0.00 0.00 80 1012.2
20260509020109 85 72 6.0 14.0 0.00 0.00 0.00 78 1012.4
20260509014558 84 55 9.0 18.0 0.00 0.00 0.00 77 1012.4
20260509013102 85 61 7.0 17.0 0.00 0.00 0.00 78 1012.4
20260509011600 84 73 8.0 15.0 0.00 0.00 0.00 78 1012.3
20260509010059 84 75 8.0 18.0 0.00 0.00 0.00 78 1012.3
20260509004611 85 96 5.0 13.0 0.00 0.00 0.00 77 1012.4
20260509003059 85 71 7.0 18.0 0.00 0.00 0.00 77 1012.2
20260509001600 84 71 10.0 17.0 0.00 0.00 0.00 78 1012.4
20260509000107 84 63 9.0 15.0 0.00 0.00 0.00 78 1012.5
20260508234558 83 63 10.0 18.0 0.00 0.00 0.00 77 1012.4
20260508233058 83 75 7.0 19.0 0.00 0.00 0.00 79 1012.5
20260508231558 83 86 8.0 17.0 0.00 0.00 0.00 77 1012.4
20260508230058 83 38 6.0 18.0 0.00 0.00 0.00 81 1012.2
20260508224640 83 73 7.0 16.0 0.00 0.00 0.00 80 1012.2
20260508223058 83 67 8.0 16.0 0.00 0.00 0.00 80 1012.0
20260508221608 82 72 5.0 14.0 0.00 0.00 0.00 81 1012.1
20260508220059 82 65 6.0 14.0 0.00 0.00 0.00 81 1011.9
20260508214602 82 69 8.0 14.0 0.00 0.00 0.00 81 1011.8
20260508213107 81 69 6.0 13.0 0.00 0.00 0.00 83 1011.7
20260508211602 81 67 5.0 14.0 0.00 0.00 0.00 84 1011.8
20260508210106 81 86 6.0 14.0 0.00 0.00 0.00 82 1011.6
20260508204601 21 92 8.0 14.0 0.00 0.00 0.00 1011.5
20260508203108 81 71 5.0 14.0 0.00 0.00 0.00 84 1011.4
20260508201613 81 80 7.0 12.0 0.00 0.00 0.00 84 1011.2
20260508200101 0 0.0 0.0 0.00 0.00 0.00 1011.0
20260508194600 0 0.0 0.0 0.00 0.00 0.00 1010.8
20260508193105 0 0.0 0.0 0.00 0.00 0.00 1010.9
20260508191610 0 0.0 0.0 0.00 0.00 0.00 1010.8
20260508190109 0 0.0 0.0 0.00 0.00 0.00 1010.7
20260508184610 0 0.0 0.0 0.00 0.00 0.00 1010.8
20260508183059 0 0.0 0.0 0.00 0.00 0.00 1010.7
20260508181559 0 0.0 0.0 0.00 0.00 0.00 1010.6
20260508174606 79 6.0 17.0 0.00 0.00 0.00 84 1010.8